logo
Search for airport 
image banner adimage banner adimage banner ad
image banner ad

HKBC - Black Marlin

Located in Msambweni, Kenya

ICAO - , IATA -

Data provided by Airmate  

General information

Coordinates: S4°30'8" E39°28'3"
Elevation is 15 feet MSL.
Magnetic variation is -1° East
View others Airports in Coast Province

Operational data

Special qualification required
Current time UTC:
Current local time:
Weather at : HKMO - Mombasa Moi Intl ( 55 km )
METAR: HKMO 152000Z 17009KT 9999 FEW020 25/22 Q1015 NOSIG
TAF: TAF HKMO 151700Z 1518/1624 22005KT 9999 FEW021 BECMG 1600/1603 SCT018 BECMG 1609/1612 18015KT SCT025 BKN080 BECMG 1618/1621 23005KT FEW020
View NOTAMs / SUP AIP / TFR affecting this airport [VIEW]
Communications frequencies: [VIEW]

Runways:

RWY identifierQFULength (ft)Width (ft)SurfaceLDA (ft)
0600UNK
2400UNK
1200UNK
3000UNK

Airport contact information

Address: Msambweni Kenya

Satellite view of HKBC